Dewpoint
58 64 69 71 70 71 71 70 70 71 71 71 71 71 71 71 70 70 70 69 69 68 68 71 71 70 69 69 69 69 69 69 70 71 71 71 71 70 70 70 71 69 71
61 65 70 71 71 71 70 70 71 71 72 71 70 70 70 70 70 70 70 70 70 70 69 68 68 70 69 69 69 69 69 69 69 70 70 70 70 70 70 70 70 68 71
63 64 69 71 71 70 70 70 70 70 71 71 70 70 70 70 70 70 70 69 69 69 70 69 67 68 69 69 69 69 69 68 68 69 69 68 68 69 69 70 70 69 69
62 64 68 70 70 70 69 70 70 70 70 70 70 70 69 70 70 70 70 70 70 70 70 70 69 69 68 67 67 69 69 69 69 67 65 66 65 68 69 68 68 68 68
62 65 68 70 69 69 69 69 69 69 69 69 69 69 69 69 69 69 69 69 69 69 69 69 68 67 66 66 69 69 68 68 67 66 66 65 65 66 70 68 67 69 68
61 64 68 69 68 68 68 68 68 68 68 68 68 68 68 68 68 67 67 67 67 67 67 67 67 66 66 66 67 67 66 65 63 62 64 66 64 66 68 70 67 68 69
61 65 66 68 68 68 67 67 67 67 67 67 66 66 66 66 66 66 65 65 65 65 65 65 65 65 64 65 65 65 63 62 59 60 62 66 66 66 67 68 69 68 68
62 64 66 67 67 67 67 67 67 66 66 66 65 65 64 64 64 63 63 63 63 63 63 63 63 63 63 63 63 62 60 58 55 56 60 64 68 67 67 66 67 68 68
60 62 63 65 66 66 66 66 66 66 65 64 63 63 62 61 61 61 60 60 60 61 60 61 60 59 60 61 61 60 59 57 52 55 58 63 68 68 69 68 67 67 68
58 60 61 62 62 63 64 65 65 64 63 61 60 58 57 57 57 56 55 55 55 55 57 57 56 56 56 56 57 56 55 55 52 55 56 63 67 68 68 69 68 68 68
55 58 58 59 59 60 59 60 59 58 56 54 52 51 46 42 43 46 49 49 49 48 48 49 49 50 51 53 53 54 53 52 54 56 59 62 65 66 67 67 67 68 68
52 55 56 56 54 53 51 49 47 42 36 39 37 37 37 36 37 40 42 43 44 44 44 43 42 39 31 25 38 47 50 52 54 57 61 60 62 65 65 66 66 66 67
51 53 54 52 51 49 47 42 38 35 32 34 33 34 35 32 31 28 25 24 25 28 19 20 18 18 17 22 27 37 49 49 51 54 59 63 62 62 62 63 64 65 66
50 52 51 49 48 44 39 36 30 28 30 30 31 32 31 28 25 24 24 23 21 19 17 17 16 16 18 19 25 38 46 47 48 50 54 59 62 66 66 66 64 65 66
48 49 47 46 42 34 34 26 25 26 26 28 29 30 29 26 25 26 25 25 23 22 18 16 16 17 18 21 24 32 38 40 41 44 46 53 58 61 63 65 66 67 67
47 46 43 44 38 33 32 24 24 24 26 29 30 30 30 30 27 28 26 26 25 24 23 21 18 18 19 20 20 22 22 23 24 25 28 40 50 55 58 60 62 63 64
46 45 43 41 37 31 29 25 24 25 26 27 28 28 29 30 28 28 28 26 26 26 26 26 25 24 23 20 19 20 21 21 22 22 24 25 30 46 50 55 57 59 60
45 44 43 39 36 29 26 27 25 26 25 26 27 28 29 29 28 28 28 27 27 26 26 26 26 26 25 24 22 22 21 21 21 21 22 25 26 26 38 46 50 53 56
44 43 42 35 33 28 26 27 26 25 25 25 26 26 28 28 28 27 27 28 27 26 25 25 26 25 24 24 22 24 23 22 21 20 20 21 23 24 25 36 42 46 50
43 41 40 32 28 26 28 27 27 26 26 25 25 26 27 28 27 26 26 27 27 26 25 25 24 25 23 23 21 22 22 22 22 21 20 19 20 21 23 25 28 34 46
41 39 35 29 27 27 27 25 24 24 25 24 25 25 25 25 26 25 26 24 24 23 23 23 24 23 24 24 23 23 23 21 19 19 20 21 20 20 21 23 26 28 33
38 34 30 27 26 27 26 26 26 24 25 25 26 24 25 25 25 23 23 23 23 23 23 22 22 23 23 23 23 23 19 19 21 20 17 17 19 21 20 20 22 27 32
33 30 27 26 26 26 26 26 26 25 25 24 23 23 23 24 25 24 24 24 23 24 23 22 22 21 20 22 22 22 21 19 19 22 20 17 18 19 20 21 21 24 28
31 28 27 26 25 25 25 24 21 21 20 22 22 22 23 24 24 25 25 23 23 23 22 21 22 22 21 19 20 19 19 20 18 16 19 19 19 18 19 20 20 24 28
29 27 26 26 25 26 25 23 22 21 22 22 22 22 21 23 23 24 24 22 22 23 21 20 21 21 21 20 19 18 18 19 18 18 15 16 19 20 21 19 20 23 26
28 27 26 26 26 26 24 23 22 21 20 21 21 21 21 22 23 22 23 23 22 22 21 20 20 19 20 20 21 21 19 16 16 17 15 15 15 17 18 20 21 23 25
Lifted_Index
-0 -2 -4 -5 -5 -5 -5 -4 -4 -4 -4 -4 -4 -4 -4 -4 -4 -3 -3 -2 -2 -2 -2 -2 -2 -2 -2 -2 -2 -2 -1 -1 -2 -2 -2 -2 -2 -2 -2 -2 -2 -2 -2
-1 -2 -4 -4 -5 -5 -4 -4 -4 -4 -4 -4 -4 -4 -4 -4 -4 -4 -3 -2 -2 -2 -2 -2 -2 -2 -2 -1 -2 -2 -2 -1 -1 -1 -2 -2 -2 -2 -2 -2 -2 -2 -2
-1 -2 -3 -4 -4 -4 -4 -4 -4 -4 -4 -4 -4 -3 -3 -3 -4 -4 -3 -3 -2 -2 -2 -2 -1 -1 -1 -1 -1 -2 -2 -2 -1 -1 -1 -1 -1 -1 -1 -1 -1 -1 -1
-2 -2 -3 -4 -4 -4 -3 -4 -4 -4 -4 -4 -4 -3 -3 -3 -3 -3 -3 -3 -2 -2 -2 -2 -2 -1 -1 -1 -1 -2 -2 -2 -1 -1 -1 -1 -1 -1 -1 -1 -1 -1 -1
-1 -2 -3 -3 -3 -3 -3 -3 -3 -3 -3 -3 -3 -3 -3 -3 -3 -3 -3 -2 -2 -2 -2 -2 -1 -0 0 -0 -1 -2 -2 -1 -1 -1 -1 -1 -1 -1 -2 -1 -1 -1 -1
-1 -2 -2 -3 -3 -2 -2 -2 -2 -2 -3 -3 -3 -2 -2 -2 -2 -2 -2 -1 -1 -1 -1 -1 -0 0 1 0 -1 -1 -1 -1 -1 -1 -1 -1 -1 -1 -2 -2 -1 -1 -2
-1 -1 -2 -2 -2 -2 -2 -2 -2 -2 -2 -1 -1 -1 -1 -0 -0 -0 -1 -0 -0 0 0 1 1 1 1 1 -0 -0 -1 -1 -1 -1 -1 -1 -1 -1 -1 -2 -2 -1 -2
0 -0 -1 -2 -2 -2 -1 -1 -1 -1 -1 -0 0 0 1 1 1 1 0 0 1 1 1 1 1 1 1 1 0 0 -0 -0 -0 -1 -1 -2 -2 -2 -1 -1 -1 -2 -2
1 0 -0 -1 -1 -1 -1 -1 -0 0 0 1 2 2 2 1 1 1 1 1 1 1 1 1 1 1 1 1 1 0 0 0 0 -0 -1 -1 -2 -2 -2 -2 -2 -2 -2
2 1 1 0 0 1 1 1 1 1 2 2 3 3 2 2 1 2 2 3 3 3 3 2 1 1 0 1 1 1 1 1 1 0 0 -0 -1 -2 -2 -2 -2 -2 -2
2 1 1 1 1 1 2 2 2 2 3 3 4 4 3 3 3 4 5 5 6 6 5 5 3 2 1 0 0 1 1 1 1 1 1 1 0 -0 -1 -1 -2 -2 -2
2 2 1 2 2 2 2 3 3 3 4 4 5 5 5 5 6 7 8 8 8 9 8 8 7 5 2 0 0 0 1 1 1 1 1 1 1 1 0 -0 -1 -1 -2
3 2 2 2 2 3 3 3 4 4 4 5 6 6 6 8 9 10 10 10 10 10 10 11 11 9 6 2 1 0 0 1 1 1 1 1 1 1 0 -0 -0 -1 -1
4 3 3 3 3 3 4 4 4 5 5 6 6 7 8 9 10 11 11 11 11 11 11 12 12 12 10 6 3 2 1 1 1 1 1 1 1 0 -0 -0 -0 -1 -1
5 4 4 3 4 4 4 5 5 5 6 6 7 8 10 11 12 12 12 12 12 13 13 13 14 14 13 11 7 5 4 3 3 2 2 1 1 0 0 0 -0 -1 -1
6 5 5 4 4 5 5 5 6 6 6 7 8 10 12 14 14 13 12 12 13 14 15 15 15 15 15 14 12 10 8 7 5 4 4 3 2 2 1 1 0 -0 -0
6 6 5 5 5 5 5 6 6 7 7 8 9 12 14 15 15 14 13 14 15 16 17 17 17 16 16 16 15 15 14 12 10 8 6 5 4 4 3 2 1 1 0
7 6 6 6 6 6 6 6 7 8 8 9 11 14 16 17 16 16 15 16 17 18 18 17 17 17 17 17 17 17 17 17 16 14 11 9 8 6 5 4 3 2 2
7 7 7 7 6 6 7 7 8 9 9 11 13 16 18 18 18 18 17 18 18 18 18 18 18 17 17 17 18 18 19 19 19 19 17 15 13 11 9 7 5 4 4
8 8 7 7 7 7 7 8 8 9 10 12 14 17 19 20 20 19 19 19 19 19 19 19 18 18 18 18 18 18 19 20 21 21 20 20 18 17 14 12 10 9 8
8 8 8 8 8 8 8 8 9 10 11 13 16 19 20 20 20 20 20 20 20 19 19 19 19 18 18 18 17 17 18 19 20 21 21 21 21 21 20 19 17 16 15
9 9 9 9 9 9 9 9 10 11 12 14 17 19 21 21 21 21 20 20 20 20 19 19 19 18 18 18 17 15 14 16 18 20 21 21 21 22 22 22 21 21 20
9 9 9 9 10 10 10 11 11 12 13 14 17 19 21 21 22 21 21 21 20 20 20 20 19 18 18 18 18 16 14 14 15 18 20 21 21 22 22 22 22 22 22
9 9 9 10 10 11 12 12 12 12 12 14 16 19 20 21 22 22 22 21 21 21 20 20 20 19 19 18 18 18 17 15 15 15 17 19 21 22 22 23 23 23 23
9 10 10 11 11 12 13 13 13 13 13 15 17 18 20 21 22 22 22 22 21 21 21 21 21 20 20 19 19 19 18 17 16 15 15 17 19 21 22 23 23 23 24
10 11 11 12 12 13 14 14 14 14 14 15 17 18 19 20 21 22 22 22 22 21 21 21 21 21 20 20 20 19 19 18 17 16 15 16 18 20 22 23 23 23 24